Location: Unspecified
(64.9000°N, 0.0000°E)
Time: 05:02:16
(UTC+00:00)

A-11 Canister half - Pass Details

Date: 25 June 2019
Orbit: 1526 x 1683 km, 47.3° (Epoch: 22 July)

Event Time Altitude Azimuth Distance (km) Brightness Sun altitude
Rises 09:56:01 0° 270° (W) 4,691 11.3 43.7°
Reaches altitude 10° 10:01:06 10° 247° (WSW) 3,697 11.0 44.1°
Maximum altitude 10:05:08 14° 221° (SW) 3,406 11.1 44.3°
Drops below altitude 10° 10:09:11 10° 194° (SSW) 3,698 11.5 44.6°
Sets 10:14:17 0° 171° (S) 4,693 12.2 44.9°
